Time,TemperatureF,DewpointF,PressureIn,WindDirection,WindDirectionDegrees,WindSpeedMPH,WindSpeedGustMPH,Humidity,HourlyPrecipIn,Conditions,Clouds,dailyrainin,SoftwareType,DateUTC
2013-01-25 00:00:00,12.9,2.3,30.43,SSE,160,1.0,1.0,62,0.00,,,0.09,Wunderground v.1.15,2013-01-25 05:00:00,
2013-01-25 00:05:00,12.9,2.3,30.43,SSE,151,1.0,1.0,62,0.00,,,0.00,Wunderground v.1.15,2013-01-25 05:05:00,
2013-01-25 00:10:00,13.1,2.5,30.43,SSE,158,1.0,1.0,62,0.00,,,0.00,Wunderground v.1.15,2013-01-25 05:10:00,
2013-01-25 00:15:00,13.1,2.2,30.43,SSE,158,2.0,2.0,61,0.00,,,0.00,Wunderground v.1.15,2013-01-25 05:15:00,
2013-01-25 00:25:00,13.1,2.2,30.43,SSE,158,1.0,2.0,61,0.00,,,0.00,Wunderground v.1.15,2013-01-25 05:25:00,
2013-01-25 00:30:00,13.1,2.2,30.43,SSE,158,1.0,1.0,61,0.00,,,0.00,Wunderground v.1.15,2013-01-25 05:30:00,
2013-01-25 00:40:00,13.1,2.5,30.43,SSW,193,1.0,1.0,62,0.00,,,0.00,Wunderground v.1.15,2013-01-25 05:40:00,
2013-01-25 00:45:00,13.3,2.7,30.43,SSW,193,0.0,1.0,62,0.00,,,0.00,Wunderground v.1.15,2013-01-25 05:45:00,
2013-01-25 00:50:00,13.3,2.7,30.43,SSW,193,0.0,0.0,62,0.00,,,0.00,Wunderground v.1.15,2013-01-25 05:50:00,
2013-01-25 00:55:00,13.1,2.5,30.43,SSW,192,0.0,0.0,62,0.00,,,0.00,Wunderground v.1.15,2013-01-25 05:55:00,
2013-01-25 01:05:00,13.1,2.5,30.43,South,191,0.0,2.0,62,0.00,,,0.00,Wunderground v.1.15,2013-01-25 06:05:00,
2013-01-25 01:15:00,13.1,2.9,30.42,SE,144,0.0,1.0,63,0.00,,,0.00,Wunderground v.1.15,2013-01-25 06:15:00,
2013-01-25 01:20:00,13.1,2.9,30.42,ESE,120,1.0,1.0,63,0.00,,,0.00,Wunderground v.1.15,2013-01-25 06:20:00,
2013-01-25 01:25:00,13.1,2.9,30.42,SE,127,1.0,1.0,63,0.00,,,0.00,Wunderground v.1.15,2013-01-25 06:25:00,
2013-01-25 01:30:00,13.1,2.9,30.40,SE,128,1.0,2.0,63,0.00,,,0.00,Wunderground v.1.15,2013-01-25 06:30:00,
2013-01-25 01:40:00,13.1,2.9,30.40,SSE,151,1.0,1.0,63,0.00,,,0.00,Wunderground v.1.15,2013-01-25 06:40:00,
2013-01-25 01:45:00,12.9,2.7,30.39,SSE,154,1.0,1.0,63,0.00,,,0.00,Wunderground v.1.15,2013-01-25 06:45:00,
2013-01-25 01:50:00,12.9,2.7,30.39,SSE,154,1.0,1.0,63,0.00,,,0.00,Wunderground v.1.15,2013-01-25 06:50:00,
2013-01-25 01:55:00,12.9,3.0,30.39,SSE,147,1.0,1.0,64,0.00,,,0.00,Wunderground v.1.15,2013-01-25 06:55:00,
2013-01-25 02:05:00,12.9,2.7,30.38,SSE,155,2.0,5.0,63,0.00,,,0.00,Wunderground v.1.15,2013-01-25 07:05:00,
2013-01-25 02:15:00,12.9,3.0,30.38,SE,145,1.0,2.0,64,0.00,,,0.00,Wunderground v.1.15,2013-01-25 07:15:00,
2013-01-25 02:20:00,13.1,3.2,30.38,SSE,150,1.0,1.0,64,0.00,,,0.00,Wunderground v.1.15,2013-01-25 07:20:00,
2013-01-25 02:25:00,13.1,2.9,30.38,SSE,160,1.0,8.0,63,0.00,,,0.00,Wunderground v.1.15,2013-01-25 07:25:00,
2013-01-25 02:35:00,13.1,3.2,30.37,SSE,147,1.0,3.0,64,0.00,,,0.00,Wunderground v.1.15,2013-01-25 07:35:00,
2013-01-25 02:40:00,13.1,3.5,30.37,SSE,155,2.0,2.0,65,0.00,,,0.00,Wunderground v.1.15,2013-01-25 07:40:00,
2013-01-25 02:45:00,13.1,3.5,30.37,SSE,165,2.0,2.0,65,0.00,,,0.00,Wunderground v.1.15,2013-01-25 07:45:00,
2013-01-25 02:50:00,12.9,4.0,30.37,SSW,193,2.0,2.0,67,0.00,,,0.00,Wunderground v.1.15,2013-01-25 07:50:00,
2013-01-25 03:00:00,12.8,4.5,30.36,ESE,119,1.0,1.0,69,0.00,,,0.00,Wunderground v.1.15,2013-01-25 08:00:00,
2013-01-25 03:05:00,12.8,4.9,30.36,SSE,165,1.0,2.0,70,0.00,,,0.00,Wunderground v.1.15,2013-01-25 08:05:00,
2013-01-25 03:15:00,12.6,5.3,30.35,SSE,151,2.0,2.0,72,0.00,,,0.00,Wunderground v.1.15,2013-01-25 08:15:00,
2013-01-25 03:20:00,12.6,5.6,30.35,SSW,200,3.0,3.0,73,0.00,,,0.00,Wunderground v.1.15,2013-01-25 08:20:00,
2013-01-25 03:25:00,12.6,5.9,30.35,SSE,151,3.0,3.0,74,0.00,,,0.00,Wunderground v.1.15,2013-01-25 08:25:00,
2013-01-25 03:35:00,12.6,6.2,30.34,SE,138,1.0,2.0,75,0.00,,,0.00,Wunderground v.1.15,2013-01-25 08:35:00,
2013-01-25 03:40:00,12.6,6.2,30.34,ESE,123,1.0,1.0,75,0.00,,,0.00,Wunderground v.1.15,2013-01-25 08:40:00,
2013-01-25 03:45:00,12.6,6.2,30.33,SE,145,1.0,6.0,75,0.00,,,0.00,Wunderground v.1.15,2013-01-25 08:45:00,
2013-01-25 03:55:00,12.8,6.4,30.33,South,172,1.0,1.0,75,0.00,,,0.00,Wunderground v.1.15,2013-01-25 08:55:00,
2013-01-25 04:00:00,12.8,6.4,30.31,SE,136,1.0,4.0,75,0.00,,,0.00,Wunderground v.1.15,2013-01-25 09:00:00,
2013-01-25 04:05:00,12.9,6.5,30.31,SE,131,1.0,4.0,75,0.00,,,0.00,Wunderground v.1.15,2013-01-25 09:05:00,
2013-01-25 04:15:00,12.9,6.5,30.30,SE,136,1.0,2.0,75,0.00,,,0.00,Wunderground v.1.15,2013-01-25 09:15:00,
2013-01-25 04:20:00,12.9,6.5,30.30,ESE,109,1.0,2.0,75,0.00,,,0.00,Wunderground v.1.15,2013-01-25 09:20:00,
2013-01-25 04:25:00,13.1,6.7,30.30,ESE,117,1.0,2.0,75,0.00,,,0.00,Wunderground v.1.15,2013-01-25 09:25:00,
2013-01-25 04:35:00,13.1,6.7,30.28,ESE,104,1.0,1.0,75,0.00,,,0.00,Wunderground v.1.15,2013-01-25 09:35:00,
2013-01-25 04:40:00,13.3,6.9,30.28,SE,136,1.0,2.0,75,0.00,,,0.00,Wunderground v.1.15,2013-01-25 09:40:00,
2013-01-25 04:45:00,13.3,6.6,30.27,ESE,116,1.0,2.0,74,0.00,,,0.00,Wunderground v.1.15,2013-01-25 09:45:00,
2013-01-25 04:55:00,13.3,6.6,30.27,East,89,1.0,2.0,74,0.00,,,0.00,Wunderground v.1.15,2013-01-25 09:55:00,
2013-01-25 05:00:00,13.5,6.5,30.26,SE,138,1.0,1.0,73,0.00,,,0.00,Wunderground v.1.15,2013-01-25 10:00:00,
2013-01-25 05:05:00,13.5,6.5,30.26,SE,145,1.0,2.0,73,0.00,,,0.00,Wunderground v.1.15,2013-01-25 10:05:00,
2013-01-25 05:15:00,13.5,6.1,30.24,East,96,1.0,3.0,72,0.00,,,0.00,Wunderground v.1.15,2013-01-25 10:15:00,
2013-01-25 05:20:00,13.5,6.1,30.24,ESE,103,1.0,1.0,72,0.00,,,0.00,Wunderground v.1.15,2013-01-25 10:20:00,
2013-01-25 05:30:00,13.6,5.9,30.23,SE,127,1.0,1.0,71,0.00,,,0.00,Wunderground v.1.15,2013-01-25 10:30:00,
2013-01-25 05:35:00,13.6,5.6,30.23,SE,124,1.0,1.0,70,0.00,,,0.00,Wunderground v.1.15,2013-01-25 10:35:00,
2013-01-25 05:40:00,13.8,5.8,30.23,SE,131,1.0,1.0,70,0.00,,,0.00,Wunderground v.1.15,2013-01-25 10:40:00,
2013-01-25 05:45:00,13.8,5.8,30.22,ESE,106,1.0,1.0,70,0.00,,,0.00,Wunderground v.1.15,2013-01-25 10:45:00,
2013-01-25 05:55:00,14.0,5.7,30.22,SE,133,1.0,3.0,69,0.00,,,0.00,Wunderground v.1.15,2013-01-25 10:55:00,
2013-01-25 06:00:00,14.0,5.7,30.21,SE,144,2.0,2.0,69,0.00,,,0.00,Wunderground v.1.15,2013-01-25 11:00:00,
2013-01-25 06:05:00,14.0,5.4,30.21,East,97,3.0,6.0,68,0.00,,,0.00,Wunderground v.1.15,2013-01-25 11:05:00,
2013-01-25 06:15:00,14.1,5.1,30.20,ESE,123,3.0,3.0,67,0.00,,,0.00,Wunderground v.1.15,2013-01-25 11:15:00,
2013-01-25 06:20:00,14.1,5.1,30.20,East,100,2.0,2.0,67,0.00,,,0.00,Wunderground v.1.15,2013-01-25 11:20:00,
2013-01-25 06:30:00,14.1,5.1,30.20,SE,140,2.0,2.0,67,0.00,,,0.00,Wunderground v.1.15,2013-01-25 11:30:00,
2013-01-25 06:35:00,14.1,5.1,30.20,SE,140,2.0,3.0,67,0.00,,,0.00,Wunderground v.1.15,2013-01-25 11:35:00,
2013-01-25 06:40:00,14.1,5.1,30.20,SE,136,2.0,2.0,67,0.00,,,0.00,Wunderground v.1.15,2013-01-25 11:40:00,
2013-01-25 06:50:00,14.1,4.8,30.20,SSE,155,2.0,2.0,66,0.00,,,0.00,Wunderground v.1.15,2013-01-25 11:50:00,
2013-01-25 06:55:00,14.1,4.8,30.20,ESE,116,3.0,3.0,66,0.00,,,0.00,Wunderground v.1.15,2013-01-25 11:55:00,
2013-01-25 07:00:00,14.1,5.1,30.18,ESE,119,2.0,2.0,67,0.00,,,0.00,Wunderground v.1.15,2013-01-25 12:00:00,
2013-01-25 07:05:00,14.1,5.1,30.18,ESE,119,1.0,2.0,67,0.00,,,0.00,Wunderground v.1.15,2013-01-25 12:05:00,
2013-01-25 07:15:00,14.1,5.1,30.18,SSE,148,1.0,3.0,67,0.00,,,0.00,Wunderground v.1.15,2013-01-25 12:15:00,
2013-01-25 07:25:00,14.1,5.5,30.18,SE,145,1.0,1.0,68,0.00,,,0.00,Wunderground v.1.15,2013-01-25 12:25:00,
2013-01-25 07:30:00,14.1,5.5,30.17,SSE,155,1.0,3.0,68,0.00,,,0.00,Wunderground v.1.15,2013-01-25 12:30:00,
2013-01-25 07:35:00,14.3,5.7,30.17,SSE,148,1.0,3.0,68,0.00,,,0.00,Wunderground v.1.15,2013-01-25 12:35:00,
2013-01-25 07:45:00,14.4,5.8,30.17,SE,130,1.0,3.0,68,0.00,,,0.00,Wunderground v.1.15,2013-01-25 12:45:00,
2013-01-25 07:50:00,14.4,6.1,30.17,SSE,155,1.0,1.0,69,0.00,,,0.00,Wunderground v.1.15,2013-01-25 12:50:00,
2013-01-25 07:55:00,14.4,6.4,30.17,SW,233,1.0,3.0,70,0.00,,,0.00,Wunderground v.1.15,2013-01-25 12:55:00,
2013-01-25 08:05:00,14.6,6.9,30.17,SSE,148,2.0,2.0,71,0.00,,,0.00,Wunderground v.1.15,2013-01-25 13:05:00,
2013-01-25 08:15:00,14.8,7.4,30.16,SSE,158,1.0,1.0,72,0.00,,,0.00,Wunderground v.1.15,2013-01-25 13:15:00,
2013-01-25 08:25:00,14.8,7.4,30.16,SE,145,0.0,1.0,72,0.00,,,0.00,Wunderground v.1.15,2013-01-25 13:25:00,
2013-01-25 08:30:00,14.9,7.5,30.15,SE,145,0.0,2.0,72,0.00,,,0.00,Wunderground v.1.15,2013-01-25 13:30:00,
2013-01-25 08:35:00,15.1,7.7,30.15,SSE,150,1.0,2.0,72,0.00,,,0.00,Wunderground v.1.15,2013-01-25 13:35:00,
2013-01-25 08:45:00,15.1,7.7,30.14,SE,140,1.0,1.0,72,0.00,,,0.00,Wunderground v.1.15,2013-01-25 13:45:00,
2013-01-25 08:50:00,15.1,8.0,30.14,SE,141,1.0,2.0,73,0.00,,,0.00,Wunderground v.1.15,2013-01-25 13:50:00,
2013-01-25 08:55:00,15.1,8.3,30.14,SSE,154,1.0,2.0,74,0.00,,,0.00,Wunderground v.1.15,2013-01-25 13:55:00,
2013-01-25 09:05:00,15.2,8.4,30.13,SSE,158,1.0,2.0,74,0.00,,,0.00,Wunderground v.1.15,2013-01-25 14:05:00,
2013-01-25 09:15:00,15.4,8.9,30.13,SSW,203,1.0,2.0,75,0.00,,,0.00,Wunderground v.1.15,2013-01-25 14:15:00,
2013-01-25 09:20:00,15.6,9.1,30.13,SSW,193,2.0,2.0,75,0.00,,,0.00,Wunderground v.1.15,2013-01-25 14:20:00,
2013-01-25 09:25:00,15.6,9.1,30.13,SSW,193,2.0,2.0,75,0.00,,,0.00,Wunderground v.1.15,2013-01-25 14:25:00,
2013-01-25 09:30:00,15.7,9.5,30.13,SSE,160,1.0,1.0,76,0.00,,,0.00,Wunderground v.1.15,2013-01-25 14:30:00,
2013-01-25 09:40:00,15.9,9.7,30.13,SE,131,1.0,1.0,76,0.00,,,0.00,Wunderground v.1.15,2013-01-25 14:40:00,
2013-01-25 09:45:00,15.9,9.7,30.12,SE,127,1.0,6.0,76,0.00,,,0.00,Wunderground v.1.15,2013-01-25 14:45:00,
2013-01-25 09:50:00,15.9,9.7,30.12,SSE,151,2.0,2.0,76,0.00,,,0.00,Wunderground v.1.15,2013-01-25 14:50:00,
2013-01-25 10:00:00,16.2,10.0,30.12,SE,138,2.0,2.0,76,0.00,,,0.00,Wunderground v.1.15,2013-01-25 15:00:00,
2013-01-25 10:05:00,16.4,10.2,30.12,SSE,150,1.0,4.0,76,0.00,,,0.00,Wunderground v.1.15,2013-01-25 15:05:00,
2013-01-25 10:15:00,16.4,10.2,30.12,SE,140,2.0,4.0,76,0.00,,,0.00,Wunderground v.1.15,2013-01-25 15:15:00,
2013-01-25 10:20:00,16.5,10.3,30.12,SSW,198,2.0,2.0,76,0.00,,,0.00,Wunderground v.1.15,2013-01-25 15:20:00,
2013-01-25 10:25:00,16.7,10.4,30.12,SE,124,3.0,3.0,76,0.00,,,0.00,Wunderground v.1.15,2013-01-25 15:25:00,
2013-01-25 10:35:00,16.9,10.6,30.11,SSE,152,2.0,5.0,76,0.00,,,0.00,Wunderground v.1.15,2013-01-25 15:35:00,
2013-01-25 10:40:00,16.9,10.9,30.11,SE,145,3.0,3.0,77,0.00,,,0.00,Wunderground v.1.15,2013-01-25 15:40:00,
2013-01-25 10:45:00,17.3,11.3,30.10,SSE,161,3.0,6.0,77,0.00,,,0.00,Wunderground v.1.15,2013-01-25 15:45:00,
2013-01-25 10:50:00,17.5,11.5,30.10,SSE,167,4.0,4.0,77,0.00,,,0.00,Wunderground v.1.15,2013-01-25 15:50:00,
2013-01-25 11:00:00,17.7,11.7,30.09,SSE,152,4.0,5.0,77,0.00,,,0.00,Wunderground v.1.15,2013-01-25 16:00:00,
2013-01-25 11:05:00,17.8,11.8,30.09,SSE,154,3.0,5.0,77,0.00,,,0.00,Wunderground v.1.15,2013-01-25 16:05:00,
2013-01-25 11:15:00,18.0,12.0,30.08,South,186,3.0,3.0,77,0.00,,,0.00,Wunderground v.1.15,2013-01-25 16:15:00,
2013-01-25 11:20:00,18.6,12.6,30.08,SSW,200,4.0,4.0,77,0.00,,,0.00,Wunderground v.1.15,2013-01-25 16:20:00,
2013-01-25 11:25:00,19.2,12.6,30.08,South,182,4.0,4.0,75,0.00,,,0.00,Wunderground v.1.15,2013-01-25 16:25:00,
2013-01-25 11:35:00,19.2,12.6,30.07,SSW,205,5.0,8.0,75,0.00,,,0.00,Wunderground v.1.15,2013-01-25 16:35:00,
2013-01-25 11:40:00,19.1,12.2,30.07,SSW,198,6.0,7.0,74,0.00,,,0.00,Wunderground v.1.15,2013-01-25 16:40:00,
2013-01-25 11:45:00,19.4,12.5,30.06,SSE,158,5.0,7.0,74,0.00,,,0.00,Wunderground v.1.15,2013-01-25 16:45:00,
2013-01-25 11:55:00,19.4,12.2,30.06,SE,133,6.0,7.0,73,0.00,,,0.00,Wunderground v.1.15,2013-01-25 16:55:00,
2013-01-25 12:00:00,19.4,12.2,30.05,South,184,6.0,6.0,73,0.00,,,0.00,Wunderground v.1.15,2013-01-25 17:00:00,
2013-01-25 12:05:00,19.5,12.3,30.05,SW,216,6.0,10.0,73,0.00,,,0.00,Wunderground v.1.15,2013-01-25 17:05:00,
2013-01-25 12:15:00,19.5,11.9,30.04,SW,232,6.0,12.0,72,0.00,,,0.00,Wunderground v.1.15,2013-01-25 17:15:00,
2013-01-25 12:20:00,19.5,12.3,30.04,South,188,6.0,6.0,73,0.00,,,0.00,Wunderground v.1.15,2013-01-25 17:20:00,
2013-01-25 12:25:00,19.7,12.1,30.04,South,188,5.0,10.0,72,0.00,,,0.00,Wunderground v.1.15,2013-01-25 17:25:00,
2013-01-25 12:35:00,19.9,12.0,30.03,SSW,202,5.0,8.0,71,0.00,,,0.00,Wunderground v.1.15,2013-01-25 17:35:00,
2013-01-25 12:40:00,20.0,12.1,30.03,SSW,205,6.0,6.0,71,0.00,,,0.00,Wunderground v.1.15,2013-01-25 17:40:00,
2013-01-25 12:45:00,20.2,12.3,30.02,SSW,203,5.0,8.0,71,0.00,,,0.00,Wunderground v.1.15,2013-01-25 17:45:00,
2013-01-25 12:55:00,20.0,12.1,30.02,SSW,208,6.0,6.0,71,0.00,,,0.00,Wunderground v.1.15,2013-01-25 17:55:00,
2013-01-25 13:00:00,20.0,11.8,30.01,SSW,205,5.0,5.0,70,0.00,,,0.00,Wunderground v.1.15,2013-01-25 18:00:00,
2013-01-25 13:05:00,20.3,12.4,30.01,SW,230,5.0,5.0,71,0.00,,,0.00,Wunderground v.1.15,2013-01-25 18:05:00,
2013-01-25 13:15:00,20.3,12.1,30.00,SSW,206,5.0,7.0,70,0.00,,,0.00,Wunderground v.1.15,2013-01-25 18:15:00,
2013-01-25 13:20:00,20.5,12.3,30.00,South,176,5.0,5.0,70,0.00,,,0.00,Wunderground v.1.15,2013-01-25 18:20:00,
2013-01-25 13:25:00,20.5,12.3,30.00,SW,226,5.0,5.0,70,0.00,,,0.00,Wunderground v.1.15,2013-01-25 18:25:00,
2013-01-25 13:35:00,20.5,12.3,29.98,SSW,195,7.0,8.0,70,0.00,,,0.00,Wunderground v.1.15,2013-01-25 18:35:00,
2013-01-25 13:40:00,20.6,12.4,29.98,SSW,202,5.0,5.0,70,0.00,,,0.00,Wunderground v.1.15,2013-01-25 18:40:00,
2013-01-25 13:45:00,20.8,12.6,29.98,South,188,3.0,5.0,70,0.00,,,0.00,Wunderground v.1.15,2013-01-25 18:45:00,
2013-01-25 13:50:00,20.8,12.6,29.98,SSE,152,3.0,4.0,70,0.00,,,0.00,Wunderground v.1.15,2013-01-25 18:50:00,
2013-01-25 14:00:00,20.6,12.4,29.97,SW,230,5.0,5.0,70,0.00,,,0.00,Wunderground v.1.15,2013-01-25 19:00:00,
2013-01-25 14:05:00,20.6,12.4,29.97,SSE,150,5.0,5.0,70,0.00,,,0.00,Wunderground v.1.15,2013-01-25 19:05:00,
2013-01-25 14:15:00,20.6,12.4,29.96,SSE,150,5.0,5.0,70,0.00,,,0.00,Wunderground v.1.15,2013-01-25 19:15:00,
2013-01-25 14:20:00,21.0,12.7,29.96,South,188,5.0,5.0,70,0.00,,,0.00,Wunderground v.1.15,2013-01-25 19:20:00,
2013-01-25 14:25:00,21.0,12.7,29.96,SSW,192,4.0,6.0,70,0.00,,,0.00,Wunderground v.1.15,2013-01-25 19:25:00,
2013-01-25 14:35:00,21.0,12.7,29.95,SE,131,4.0,4.0,70,0.00,,,0.00,Wunderground v.1.15,2013-01-25 19:35:00,
2013-01-25 14:40:00,21.0,12.7,29.95,SSW,203,4.0,10.0,70,0.00,,,0.00,Wunderground v.1.15,2013-01-25 19:40:00,
2013-01-25 14:45:00,21.0,12.7,29.94,SSE,158,4.0,10.0,70,0.00,,,0.00,Wunderground v.1.15,2013-01-25 19:45:00,
2013-01-25 14:55:00,21.1,12.8,29.94,SSE,150,4.0,6.0,70,0.00,,,0.00,Wunderground v.1.15,2013-01-25 19:55:00,
2013-01-25 15:00:00,21.1,12.8,29.94,South,175,4.0,4.0,70,0.00,,,0.00,Wunderground v.1.15,2013-01-25 20:00:00,
2013-01-25 15:05:00,21.1,13.2,29.94,SSW,206,5.0,11.0,71,0.00,,,0.00,Wunderground v.1.15,2013-01-25 20:05:00,
2013-01-25 15:15:00,21.1,13.2,29.94,SSW,198,6.0,11.0,71,0.00,,,0.00,Wunderground v.1.15,2013-01-25 20:15:00,
2013-01-25 15:20:00,21.1,13.5,29.94,SE,144,5.0,5.0,72,0.00,,,0.00,Wunderground v.1.15,2013-01-25 20:20:00,
2013-01-25 15:30:00,21.1,13.8,29.94,SSW,209,4.0,4.0,73,0.00,,,0.00,Wunderground v.1.15,2013-01-25 20:30:00,
2013-01-25 15:35:00,21.1,14.1,29.94,SSW,195,4.0,7.0,74,0.00,,,0.00,Wunderground v.1.15,2013-01-25 20:35:00,
2013-01-25 15:40:00,21.0,14.0,29.94,SSW,202,4.0,4.0,74,0.00,,,0.00,Wunderground v.1.15,2013-01-25 20:40:00,
2013-01-25 15:50:00,21.0,14.3,29.93,SSW,193,4.0,4.0,75,0.00,,,0.00,Wunderground v.1.15,2013-01-25 20:50:00,
2013-01-25 15:55:00,20.8,14.4,29.93,SW,217,3.0,4.0,76,0.00,,,0.00,Wunderground v.1.15,2013-01-25 20:55:00,
2013-01-25 16:00:00,20.8,14.7,29.93,SSW,210,3.0,5.0,77,0.00,,,0.00,Wunderground v.1.15,2013-01-25 21:00:00,
2013-01-25 16:05:00,20.6,14.5,29.93,SSW,210,3.0,5.0,77,0.00,,,0.00,Wunderground v.1.15,2013-01-25 21:05:00,
2013-01-25 16:15:00,20.6,14.8,29.94,SSW,203,3.0,5.0,78,0.00,,,0.00,Wunderground v.1.15,2013-01-25 21:15:00,
2013-01-25 16:20:00,20.5,15.0,29.94,SSW,205,3.0,3.0,79,0.00,,,0.00,Wunderground v.1.15,2013-01-25 21:20:00,
2013-01-25 16:30:00,20.5,15.3,29.94,SSW,199,4.0,5.0,80,0.00,,,0.00,Wunderground v.1.15,2013-01-25 21:30:00,
2013-01-25 16:35:00,20.5,15.6,29.94,SSW,198,3.0,6.0,81,0.00,,,0.00,Wunderground v.1.15,2013-01-25 21:35:00,
2013-01-25 16:40:00,20.5,15.6,29.94,SSW,208,3.0,3.0,81,0.00,,,0.00,Wunderground v.1.15,2013-01-25 21:40:00,
2013-01-25 16:49:00,20.5,15.9,29.94,SSW,192,3.0,3.0,82,0.00,,,0.00,Wunderground v.1.15,2013-01-25 21:49:00,
2013-01-25 16:55:00,20.5,16.2,29.94,SSW,210,3.0,4.0,83,0.00,,,0.00,Wunderground v.1.15,2013-01-25 21:55:00,
2013-01-25 17:00:00,20.5,16.2,29.94,SSW,209,3.0,3.0,83,0.00,,,0.00,Wunderground v.1.15,2013-01-25 22:00:00,
2013-01-25 17:05:00,20.5,16.2,29.94,SSW,208,2.0,3.0,83,0.00,,,0.00,Wunderground v.1.15,2013-01-25 22:05:00,
2013-01-25 17:15:00,20.5,16.2,29.95,South,184,2.0,5.0,83,0.00,,,0.00,Wunderground v.1.15,2013-01-25 22:15:00,
2013-01-25 17:25:00,20.5,16.4,29.95,SW,222,1.0,2.0,84,0.00,,,0.00,Wunderground v.1.15,2013-01-25 22:25:00,
2013-01-25 17:30:00,20.5,16.4,29.95,SSW,209,1.0,1.0,84,0.00,,,0.00,Wunderground v.1.15,2013-01-25 22:30:00,
2013-01-25 17:35:00,20.5,16.4,29.95,South,172,1.0,2.0,84,0.00,,,0.00,Wunderground v.1.15,2013-01-25 22:35:00,
2013-01-25 17:40:00,20.5,16.4,29.95,SSW,193,1.0,2.0,84,0.00,,,0.00,Wunderground v.1.15,2013-01-25 22:40:00,
2013-01-25 17:50:00,20.5,16.4,29.95,SSE,150,1.0,1.0,84,0.00,,,0.00,Wunderground v.1.15,2013-01-25 22:50:00,
2013-01-25 17:55:00,20.5,16.7,29.95,SSW,205,1.0,1.0,85,0.00,,,0.00,Wunderground v.1.15,2013-01-25 22:55:00,
2013-01-25 18:00:00,20.5,16.7,29.95,SSW,209,1.0,2.0,85,0.00,,,0.00,Wunderground v.1.15,2013-01-25 23:00:00,
2013-01-25 18:05:00,20.5,16.7,29.95,SSW,200,1.0,2.0,85,0.00,,,0.00,Wunderground v.1.15,2013-01-25 23:05:00,
2013-01-25 18:15:00,20.3,16.5,29.94,SSW,200,1.0,2.0,85,0.00,,,0.00,Wunderground v.1.15,2013-01-25 23:15:00,
2013-01-25 18:25:00,20.5,16.7,29.94,SSW,198,1.0,1.0,85,0.00,,,0.00,Wunderground v.1.15,2013-01-25 23:25:00,
2013-01-25 18:30:00,20.5,16.7,29.95,SSW,198,0.0,0.0,85,0.00,,,0.00,Wunderground v.1.15,2013-01-25 23:30:00,
2013-01-25 18:35:00,20.5,16.7,29.95,SW,232,0.0,0.0,85,0.00,,,0.00,Wunderground v.1.15,2013-01-25 23:35:00,
2013-01-25 18:45:00,20.6,16.8,29.96,SW,224,0.0,0.0,85,0.00,,,0.00,Wunderground v.1.15,2013-01-25 23:45:00,
2013-01-25 18:50:00,20.6,16.8,29.96,South,191,1.0,2.0,85,0.00,,,0.00,Wunderground v.1.15,2013-01-25 23:50:00,
2013-01-25 18:55:00,20.5,16.7,29.96,SSW,199,1.0,2.0,85,0.00,,,0.00,Wunderground v.1.15,2013-01-25 23:55:00,
2013-01-25 19:00:00,20.5,17.0,29.96,West,278,0.0,0.0,86,0.00,,,0.00,Wunderground v.1.15,2013-01-26 00:00:00,
2013-01-25 19:05:00,20.5,17.0,29.96,SSW,200,1.0,1.0,86,0.00,,,0.00,Wunderground v.1.15,2013-01-26 00:05:00,
2013-01-25 19:14:00,20.5,17.0,29.95,SSW,205,1.0,1.0,86,0.00,,,0.00,Wunderground v.1.15,2013-01-26 00:14:00,
2013-01-25 19:19:00,20.5,17.0,29.95,SSW,202,1.0,1.0,86,0.00,,,0.00,Wunderground v.1.15,2013-01-26 00:19:00,
2013-01-25 19:25:00,20.5,17.0,29.95,SSW,202,0.0,1.0,86,0.00,,,0.00,Wunderground v.1.15,2013-01-26 00:25:00,
2013-01-25 19:30:00,20.5,17.0,29.96,SSW,202,0.0,0.0,86,0.00,,,0.00,Wunderground v.1.15,2013-01-26 00:30:00,
2013-01-25 19:35:00,20.5,17.0,29.96,SSW,202,0.0,0.0,86,0.00,,,0.00,Wunderground v.1.15,2013-01-26 00:35:00,
2013-01-25 19:45:00,20.5,17.0,29.96,SSW,202,0.0,2.0,86,0.00,,,0.00,Wunderground v.1.15,2013-01-26 00:45:00,
2013-01-25 19:50:00,20.5,17.0,29.96,SSW,205,0.0,0.0,86,0.00,,,0.00,Wunderground v.1.15,2013-01-26 00:50:00,
2013-01-25 19:55:00,20.5,17.0,29.96,SSW,203,0.0,2.0,86,0.00,,,0.00,Wunderground v.1.15,2013-01-26 00:55:00,
2013-01-25 20:00:00,20.6,17.1,29.96,SSW,205,1.0,2.0,86,0.00,,,0.00,Wunderground v.1.15,2013-01-26 01:00:00,
2013-01-25 20:05:00,20.6,17.1,29.96,NNW,337,1.0,2.0,86,0.00,,,0.00,Wunderground v.1.15,2013-01-26 01:05:00,
2013-01-25 20:15:00,20.6,17.1,29.96,West,268,0.0,1.0,86,0.00,,,0.00,Wunderground v.1.15,2013-01-26 01:15:00,
2013-01-25 20:25:00,20.8,17.5,29.96,West,268,1.0,1.0,87,0.00,,,0.00,Wunderground v.1.15,2013-01-26 01:25:00,
2013-01-25 20:30:00,20.8,17.5,29.97,West,268,0.0,0.0,87,0.00,,,0.00,Wunderground v.1.15,2013-01-26 01:30:00,
2013-01-25 20:35:00,20.8,17.5,29.97,West,268,0.0,0.0,87,0.00,,,0.00,Wunderground v.1.15,2013-01-26 01:35:00,
2013-01-25 20:40:00,21.0,17.7,29.97,West,268,0.0,0.0,87,0.00,,,0.00,Wunderground v.1.15,2013-01-26 01:40:00,
2013-01-25 20:50:00,21.1,17.8,29.97,West,268,0.0,0.0,87,0.00,,,0.00,Wunderground v.1.15,2013-01-26 01:50:00,
2013-01-25 20:55:00,21.3,18.0,29.97,West,270,0.0,0.0,87,0.00,,,0.00,Wunderground v.1.15,2013-01-26 01:55:00,
2013-01-25 21:00:00,21.3,18.0,29.97,WNW,284,0.0,0.0,87,0.00,,,0.00,Wunderground v.1.15,2013-01-26 02:00:00,
2013-01-25 21:05:00,21.4,18.1,29.97,WNW,295,0.0,0.0,87,0.00,,,0.00,Wunderground v.1.15,2013-01-26 02:05:00,
2013-01-25 21:15:00,21.4,18.1,29.98,NW,326,1.0,1.0,87,0.00,,,0.00,Wunderground v.1.15,2013-01-26 02:15:00,
2013-01-25 21:20:00,21.4,18.1,29.98,NW,326,1.0,1.0,87,0.00,,,0.00,Wunderground v.1.15,2013-01-26 02:20:00,
2013-01-25 21:30:00,21.4,18.1,29.98,NW,326,0.0,0.0,87,0.00,,,0.00,Wunderground v.1.15,2013-01-26 02:30:00,
2013-01-25 21:35:00,21.4,18.1,29.98,NW,326,0.0,0.0,87,0.00,,,0.00,Wunderground v.1.15,2013-01-26 02:35:00,
2013-01-25 21:40:00,21.4,18.1,29.98,NW,326,0.0,0.0,87,0.00,,,0.00,Wunderground v.1.15,2013-01-26 02:40:00,
2013-01-25 21:50:00,21.3,18.0,29.98,NW,326,0.0,0.0,87,0.00,,,0.00,Wunderground v.1.15,2013-01-26 02:50:00,
2013-01-25 21:55:00,21.3,18.0,29.98,NW,326,0.0,0.0,87,0.00,,,0.00,Wunderground v.1.15,2013-01-26 02:55:00,
2013-01-25 22:00:00,21.3,18.0,29.99,NW,326,0.0,0.0,87,0.00,,,0.00,Wunderground v.1.15,2013-01-26 03:00:00,
2013-01-25 22:05:00,21.1,17.8,29.99,NW,326,0.0,0.0,87,0.00,,,0.00,Wunderground v.1.15,2013-01-26 03:05:00,
2013-01-25 22:15:00,21.1,17.8,29.99,NW,326,0.0,0.0,87,0.00,,,0.00,Wunderground v.1.15,2013-01-26 03:15:00,
2013-01-25 22:25:00,21.1,17.8,29.99,NW,326,0.0,0.0,87,0.00,,,0.00,Wunderground v.1.15,2013-01-26 03:25:00,
2013-01-25 22:30:00,21.1,17.8,29.99,NW,326,0.0,0.0,87,0.00,,,0.00,Wunderground v.1.15,2013-01-26 03:30:00,
2013-01-25 22:35:00,21.1,17.8,29.99,NW,326,0.0,0.0,87,0.00,,,0.00,Wunderground v.1.15,2013-01-26 03:35:00,
2013-01-25 22:40:00,21.1,17.8,29.99,NW,326,0.0,0.0,87,0.00,,,0.00,Wunderground v.1.15,2013-01-26 03:40:00,
2013-01-25 22:50:00,21.3,18.0,30.00,NW,326,0.0,0.0,87,0.00,,,0.00,Wunderground v.1.15,2013-01-26 03:50:00,
2013-01-25 22:55:00,21.1,17.8,30.00,NW,326,0.0,0.0,87,0.00,,,0.00,Wunderground v.1.15,2013-01-26 03:55:00,
2013-01-25 23:05:00,21.1,17.8,30.00,NW,326,0.0,0.0,87,0.00,,,0.00,Wunderground v.1.15,2013-01-26 04:05:00,
2013-01-25 23:15:00,21.1,17.8,30.01,NW,326,0.0,0.0,87,0.00,,,0.00,Wunderground v.1.15,2013-01-26 04:15:00,
2013-01-25 23:25:00,21.0,17.7,30.01,NW,326,0.0,0.0,87,0.00,,,0.00,Wunderground v.1.15,2013-01-26 04:25:00,
2013-01-25 23:30:00,21.0,17.7,30.01,NW,326,0.0,0.0,87,0.00,,,0.00,Wunderground v.1.15,2013-01-26 04:30:00,
2013-01-25 23:35:00,21.0,17.7,30.01,NW,326,0.0,0.0,87,0.00,,,0.00,Wunderground v.1.15,2013-01-26 04:35:00,
2013-01-25 23:40:00,21.0,17.7,30.01,NW,326,0.0,0.0,87,0.00,,,0.00,Wunderground v.1.15,2013-01-26 04:40:00,
2013-01-25 23:50:00,21.0,17.7,30.02,NW,326,0.0,0.0,87,0.00,,,0.00,Wunderground v.1.15,2013-01-26 04:50:00,
2013-01-25 23:55:00,21.0,17.7,30.02,NW,326,0.0,0.0,87,0.00,,,0.00,Wunderground v.1.15,2013-01-26 04:55:00,